User: anonymous   Login
Location: Unspecified
(0.0000°N, 0.0000°E)
Time: 00:27:27
(UTC+01:00)
Language:

H-2A R/B - Orbit

View from above orbital plane
View from above orbital plane
View from above satellite
View from above satellite

Ground track
Ground track

The orbit data is extracted from the following two-line orbital elements,

1 26899U 01038B   17053.34760942  .00000926  00000-0  19028-3 0  9997
2 26899  27.9068 111.9378 7131245 112.0459 333.6719  2.47489081133678
Epoch (UTC): 22 February 2017 08:20:33
Eccentricity: 0.7131245
inclination: 27.9068°
perigee height: 245 km
apogee height: 33172 km
right ascension of ascending node: 111.9378°
argument of perigee: 112.0459°
revolutions per day: 2.47489081
mean anomaly at epoch: 333.6719°
orbit number at epoch: 13367

The dashed part of the orbit path shows where the satellite is in the earth's shadow,  

DLR